Time,TemperatureF,DewpointF,PressureIn,WindDirection,WindDirectionDegrees,WindSpeedMPH,WindSpeedGustMPH,Humidity,HourlyPrecipIn,Conditions,Clouds,dailyrainin,SoftwareType,DateUTC
2013-04-29 00:02:00,58.2,50.7,29.76,SSE,167,0.0,4.0,76,0.00,,CLR,0.00,VWS V14.01,2013-04-29 05:02:00,
2013-04-29 00:07:00,58.0,50.5,29.76,South,190,2.0,4.0,76,0.00,,CLR,0.00,VWS V14.01,2013-04-29 05:07:00,
2013-04-29 00:12:00,57.6,50.5,29.76,SSW,210,2.0,5.0,77,0.00,,CLR,0.00,VWS V14.01,2013-04-29 05:12:00,
2013-04-29 00:17:00,57.0,50.2,29.75,South,170,1.0,7.0,78,0.00,,CLR,0.00,VWS V14.01,2013-04-29 05:17:00,
2013-04-29 00:22:00,57.4,50.6,29.76,SW,215,2.0,7.0,78,0.00,,CLR,0.00,VWS V14.01,2013-04-29 05:22:00,
2013-04-29 00:27:00,57.3,50.5,29.76,SSW,205,2.0,7.0,78,0.00,,CLR,0.00,VWS V14.01,2013-04-29 05:27:00,
2013-04-29 00:32:00,57.0,50.6,29.75,South,185,1.0,7.0,79,0.00,,CLR,0.00,VWS V14.01,2013-04-29 05:32:00,
2013-04-29 00:37:00,57.5,50.7,29.76,SW,224,3.0,7.0,78,0.00,,CLR,0.00,VWS V14.01,2013-04-29 05:37:00,
2013-04-29 00:42:00,57.4,51.0,29.76,SSE,154,3.0,7.0,79,0.00,,CLR,0.00,VWS V14.01,2013-04-29 05:42:00,
2013-04-29 00:47:00,57.5,50.7,29.76,SSW,193,3.0,7.0,78,0.00,,CLR,0.00,VWS V14.01,2013-04-29 05:47:00,
2013-04-29 00:52:00,56.9,50.5,29.76,South,185,3.0,7.0,79,0.00,,CLR,0.00,VWS V14.01,2013-04-29 05:52:00,
2013-04-29 00:57:00,56.9,50.8,29.76,South,182,3.0,7.0,80,0.00,,CLR,0.00,VWS V14.01,2013-04-29 05:57:00,
2013-04-29 01:02:00,57.1,51.0,29.76,South,181,6.0,6.0,80,0.00,,CLR,0.00,VWS V14.01,2013-04-29 06:02:00,
2013-04-29 01:07:00,56.9,50.5,29.76,SSW,207,4.0,6.0,79,0.00,,CLR,0.00,VWS V14.01,2013-04-29 06:07:00,
2013-04-29 01:12:00,56.8,50.7,29.76,South,171,4.0,6.0,80,0.00,,CLR,0.00,VWS V14.01,2013-04-29 06:12:00,
2013-04-29 01:17:00,56.7,50.6,29.76,SSW,198,5.0,6.0,80,0.00,,CLR,0.00,VWS V14.01,2013-04-29 06:17:00,
2013-04-29 01:22:00,56.9,51.1,29.76,South,177,2.0,8.0,81,0.00,,CLR,0.00,VWS V14.01,2013-04-29 06:22:00,
2013-04-29 01:27:00,56.9,51.1,29.76,South,184,3.0,8.0,81,0.00,,CLR,0.00,VWS V14.01,2013-04-29 06:27:00,
2013-04-29 01:32:00,56.5,50.8,29.76,South,180,4.0,8.0,81,0.00,,CLR,0.00,VWS V14.01,2013-04-29 06:32:00,
2013-04-29 01:38:00,56.6,50.8,29.76,South,175,5.0,8.0,81,0.00,,CLR,0.00,VWS V14.01,2013-04-29 06:38:00,
2013-04-29 01:43:00,56.8,51.4,29.76,South,182,3.0,8.0,82,0.00,,CLR,0.00,VWS V14.01,2013-04-29 06:43:00,
2013-04-29 01:48:00,57.0,51.2,29.75,SSE,149,7.0,10.0,81,0.00,,CLR,0.00,VWS V14.01,2013-04-29 06:48:00,
2013-04-29 01:53:00,57.0,51.2,29.75,South,175,4.0,10.0,81,0.00,,CLR,0.00,VWS V14.01,2013-04-29 06:53:00,
2013-04-29 01:58:00,56.9,51.5,29.75,South,177,6.0,10.0,82,0.00,,CLR,0.00,VWS V14.01,2013-04-29 06:58:00,
2013-04-29 02:03:00,56.8,51.4,29.75,SW,228,8.0,8.0,82,0.00,,CLR,0.00,VWS V14.01,2013-04-29 07:03:00,
2013-04-29 02:08:00,56.7,51.3,29.75,SSW,210,3.0,10.0,82,0.00,,CLR,0.00,VWS V14.01,2013-04-29 07:08:00,
2013-04-29 02:13:00,56.7,51.6,29.75,South,182,4.0,10.0,83,0.00,,CLR,0.00,VWS V14.01,2013-04-29 07:13:00,
2013-04-29 02:18:00,56.8,51.7,29.75,SSE,157,4.0,10.0,83,0.00,,CLR,0.00,VWS V14.01,2013-04-29 07:18:00,
2013-04-29 02:23:00,56.8,51.7,29.75,South,188,7.0,10.0,83,0.00,,CLR,0.00,VWS V14.01,2013-04-29 07:23:00,
2013-04-29 02:28:00,56.8,51.7,29.75,SSW,202,2.0,10.0,83,0.00,,CLR,0.00,VWS V14.01,2013-04-29 07:28:00,
2013-04-29 02:33:00,56.6,51.8,29.75,SSW,198,8.0,10.0,84,0.00,,CLR,0.00,VWS V14.01,2013-04-29 07:33:00,
2013-04-29 02:38:00,56.7,51.9,29.75,South,182,6.0,10.0,84,0.00,,CLR,0.00,VWS V14.01,2013-04-29 07:38:00,
2013-04-29 02:43:00,56.7,51.9,29.75,South,174,6.0,10.0,84,0.00,,CLR,0.00,VWS V14.01,2013-04-29 07:43:00,
2013-04-29 02:48:00,56.6,51.8,29.75,SSW,197,3.0,10.0,84,0.00,,CLR,0.00,VWS V14.01,2013-04-29 07:48:00,
2013-04-29 02:53:00,56.4,51.6,29.75,SSE,156,1.0,10.0,84,0.00,,CLR,0.00,VWS V14.01,2013-04-29 07:53:00,
2013-04-29 02:58:00,56.2,51.8,29.75,South,177,2.0,10.0,85,0.00,,CLR,0.00,VWS V14.01,2013-04-29 07:58:00,
2013-04-29 03:03:00,56.0,51.6,29.75,SE,131,3.0,4.0,85,0.00,,CLR,0.00,VWS V14.01,2013-04-29 08:03:00,
2013-04-29 03:08:00,56.0,51.9,29.75,South,177,3.0,5.0,86,0.00,,CLR,0.00,VWS V14.01,2013-04-29 08:08:00,
2013-04-29 03:13:00,55.9,51.8,29.75,South,178,1.0,5.0,86,0.00,,CLR,0.00,VWS V14.01,2013-04-29 08:13:00,
2013-04-29 03:18:00,55.9,51.8,29.76,South,175,3.0,7.0,86,0.00,,CLR,0.00,VWS V14.01,2013-04-29 08:18:00,
2013-04-29 03:23:00,55.8,51.7,29.76,South,170,1.0,7.0,86,0.00,,CLR,0.00,VWS V14.01,2013-04-29 08:23:00,
2013-04-29 03:29:00,55.6,51.5,29.76,SSE,168,0.0,7.0,86,0.00,,CLR,0.00,VWS V14.01,2013-04-29 08:29:00,
2013-04-29 03:34:00,55.3,51.5,29.76,SSE,168,0.0,7.0,87,0.00,,CLR,0.00,VWS V14.01,2013-04-29 08:34:00,
2013-04-29 03:39:00,54.8,51.0,29.76,SE,126,0.0,7.0,87,0.00,,CLR,0.00,VWS V14.01,2013-04-29 08:39:00,
2013-04-29 03:44:00,54.3,50.8,29.76,SE,126,0.0,7.0,88,0.00,,CLR,0.00,VWS V14.01,2013-04-29 08:44:00,
2013-04-29 03:49:00,53.9,50.7,29.76,SE,126,0.0,7.0,89,0.00,,CLR,0.00,VWS V14.01,2013-04-29 08:49:00,
2013-04-29 03:54:00,53.9,50.7,29.76,SE,126,0.0,7.0,89,0.00,,CLR,0.00,VWS V14.01,2013-04-29 08:54:00,
2013-04-29 03:59:00,53.8,50.6,29.76,SE,126,0.0,7.0,89,0.00,,CLR,0.00,VWS V14.01,2013-04-29 08:59:00,
2013-04-29 04:04:00,53.2,50.3,29.77,NW,319,0.0,2.0,90,0.00,,CLR,0.00,VWS V14.01,2013-04-29 09:04:00,
2013-04-29 04:09:00,54.0,51.4,29.77,NW,319,0.0,2.0,91,0.00,,CLR,0.00,VWS V14.01,2013-04-29 09:09:00,
2013-04-29 04:14:00,54.1,51.2,29.78,NW,319,1.0,2.0,90,0.00,,CLR,0.00,VWS V14.01,2013-04-29 09:14:00,
2013-04-29 04:19:00,54.4,51.5,29.78,NW,319,0.0,2.0,90,0.00,,CLR,0.00,VWS V14.01,2013-04-29 09:19:00,
2013-04-29 04:24:00,54.7,51.8,29.78,NW,306,5.0,5.0,90,0.00,,CLR,0.00,VWS V14.01,2013-04-29 09:24:00,
2013-04-29 04:29:00,55.2,52.3,29.78,NNW,330,4.0,5.0,90,0.00,,CLR,0.00,VWS V14.01,2013-04-29 09:29:00,
2013-04-29 04:34:00,55.3,52.4,29.78,NNW,336,0.0,5.0,90,0.00,,CLR,0.00,VWS V14.01,2013-04-29 09:34:00,
2013-04-29 04:39:00,55.0,51.8,29.78,NNW,336,0.0,5.0,89,0.00,,CLR,0.00,VWS V14.01,2013-04-29 09:39:00,
2013-04-29 04:44:00,55.1,52.2,29.78,NNW,336,0.0,5.0,90,0.00,,CLR,0.00,VWS V14.01,2013-04-29 09:44:00,
2013-04-29 04:49:00,55.1,51.9,29.78,NNW,336,0.0,5.0,89,0.00,,CLR,0.00,VWS V14.01,2013-04-29 09:49:00,
2013-04-29 04:54:00,54.6,51.7,29.78,NNW,336,1.0,5.0,90,0.00,,CLR,0.00,VWS V14.01,2013-04-29 09:54:00,
2013-04-29 04:59:00,54.7,51.8,29.78,NNW,336,0.0,5.0,90,0.00,,CLR,0.00,VWS V14.01,2013-04-29 09:59:00,
2013-04-29 05:04:00,54.7,51.5,29.78,NNW,336,0.0,0.0,89,0.00,,CLR,0.00,VWS V14.01,2013-04-29 10:04:00,
2013-04-29 05:09:00,54.4,51.5,29.78,NNW,336,0.0,0.0,90,0.00,,CLR,0.00,VWS V14.01,2013-04-29 10:09:00,
2013-04-29 05:14:00,53.9,51.0,29.78,NNW,336,0.0,0.0,90,0.00,,CLR,0.00,VWS V14.01,2013-04-29 10:14:00,
2013-04-29 05:19:00,54.1,51.5,29.77,NNW,336,0.0,0.0,91,0.00,,CLR,0.00,VWS V14.01,2013-04-29 10:19:00,
2013-04-29 05:24:00,54.2,51.6,29.77,NNW,336,0.0,0.0,91,0.00,,CLR,0.00,VWS V14.01,2013-04-29 10:24:00,
2013-04-29 05:29:00,54.4,52.1,29.77,NNW,336,0.0,0.0,92,0.00,,CLR,0.00,VWS V14.01,2013-04-29 10:29:00,
2013-04-29 05:34:00,54.3,51.7,29.77,NNW,336,0.0,0.0,91,0.00,,CLR,0.00,VWS V14.01,2013-04-29 10:34:00,
2013-04-29 05:40:00,54.5,51.9,29.76,NNW,336,0.0,0.0,91,0.00,,CLR,0.00,VWS V14.01,2013-04-29 10:40:00,
2013-04-29 05:45:00,54.6,52.0,29.76,NE,45,0.0,1.0,91,0.00,,CLR,0.00,VWS V14.01,2013-04-29 10:45:00,
2013-04-29 05:50:00,54.5,51.9,29.76,NE,45,0.0,1.0,91,0.00,,CLR,0.00,VWS V14.01,2013-04-29 10:50:00,
2013-04-29 05:55:00,54.6,52.0,29.76,NE,45,0.0,1.0,91,0.00,,CLR,0.00,VWS V14.01,2013-04-29 10:55:00,
2013-04-29 06:00:00,54.8,52.2,29.76,East,92,0.0,1.0,91,0.00,,CLR,0.00,VWS V14.01,2013-04-29 11:00:00,
2013-04-29 06:05:00,54.8,52.2,29.76,East,92,1.0,1.0,91,0.00,,CLR,0.00,VWS V14.01,2013-04-29 11:05:00,
2013-04-29 06:10:00,55.0,52.4,29.76,East,92,0.0,2.0,91,0.00,,CLR,0.00,VWS V14.01,2013-04-29 11:10:00,
2013-04-29 06:15:00,55.4,52.5,29.76,East,92,0.0,2.0,90,0.00,,CLR,0.00,VWS V14.01,2013-04-29 11:15:00,
2013-04-29 06:20:00,55.7,52.8,29.77,East,92,0.0,2.0,90,0.00,,CLR,0.00,VWS V14.01,2013-04-29 11:20:00,
2013-04-29 06:25:00,55.7,52.8,29.76,East,92,0.0,2.0,90,0.00,,CLR,0.00,VWS V14.01,2013-04-29 11:25:00,
2013-04-29 06:30:00,55.8,52.6,29.75,ESE,111,0.0,4.0,89,0.00,,CLR,0.00,VWS V14.01,2013-04-29 11:30:00,
2013-04-29 06:35:00,55.7,52.8,29.75,ESE,111,1.0,4.0,90,0.00,,CLR,0.00,VWS V14.01,2013-04-29 11:35:00,
2013-04-29 06:40:00,55.8,52.9,29.75,SE,127,0.0,4.0,90,0.00,,CLR,0.00,VWS V14.01,2013-04-29 11:40:00,
2013-04-29 06:45:00,55.9,52.7,29.75,SE,126,3.0,4.0,89,0.00,,CLR,0.00,VWS V14.01,2013-04-29 11:45:00,
2013-04-29 06:50:00,55.8,52.6,29.74,SE,124,3.0,7.0,89,0.00,,CLR,0.00,VWS V14.01,2013-04-29 11:50:00,
2013-04-29 06:55:00,55.6,52.4,29.75,SE,126,2.0,7.0,89,0.00,,CLR,0.00,VWS V14.01,2013-04-29 11:55:00,
2013-04-29 07:00:00,55.5,52.3,29.75,SE,141,4.0,4.0,89,0.00,,CLR,0.00,VWS V14.01,2013-04-29 12:00:00,
2013-04-29 07:05:00,55.4,52.5,29.75,SSE,148,2.0,8.0,90,0.00,,CLR,0.00,VWS V14.01,2013-04-29 12:05:00,
2013-04-29 07:10:00,55.3,52.4,29.75,SE,125,1.0,8.0,90,0.00,,CLR,0.00,VWS V14.01,2013-04-29 12:10:00,
2013-04-29 07:16:00,55.2,52.3,29.75,SSE,159,4.0,9.0,90,0.00,,CLR,0.00,VWS V14.01,2013-04-29 12:16:00,
2013-04-29 07:21:00,55.2,52.6,29.76,SE,130,4.0,10.0,91,0.00,,CLR,0.00,VWS V14.01,2013-04-29 12:21:00,
2013-04-29 07:26:00,55.3,52.7,29.78,SSW,201,0.0,10.0,91,0.00,,CLR,0.00,VWS V14.01,2013-04-29 12:26:00,
2013-04-29 07:31:00,55.4,52.5,29.77,SE,140,3.0,10.0,90,0.00,,CLR,0.00,VWS V14.01,2013-04-29 12:31:00,
2013-04-29 07:36:00,55.4,52.8,29.77,SE,126,3.0,10.0,91,0.00,,CLR,0.00,VWS V14.01,2013-04-29 12:36:00,
2013-04-29 07:41:00,55.3,52.7,29.76,SE,133,2.0,10.0,91,0.00,,CLR,0.00,VWS V14.01,2013-04-29 12:41:00,
2013-04-29 07:46:00,55.3,52.7,29.75,SSE,158,6.0,10.0,91,0.00,,CLR,0.00,VWS V14.01,2013-04-29 12:46:00,
2013-04-29 07:51:00,55.2,52.6,29.75,SE,140,4.0,10.0,91,0.00,,CLR,0.00,VWS V14.01,2013-04-29 12:51:00,
2013-04-29 07:56:00,55.1,52.5,29.74,SSE,159,5.0,10.0,91,0.00,,CLR,0.00,VWS V14.01,2013-04-29 12:56:00,
2013-04-29 08:01:00,55.1,52.5,29.74,ESE,107,2.0,2.0,91,0.00,,CLR,0.00,VWS V14.01,2013-04-29 13:01:00,
2013-04-29 08:06:00,55.0,52.4,29.75,South,185,2.0,9.0,91,0.00,,CLR,0.00,VWS V14.01,2013-04-29 13:06:00,
2013-04-29 08:11:00,55.1,52.5,29.75,SE,134,0.0,9.0,91,0.00,,CLR,0.00,VWS V14.01,2013-04-29 13:11:00,
2013-04-29 08:16:00,55.1,52.5,29.75,South,175,3.0,9.0,91,0.00,,CLR,0.00,VWS V14.01,2013-04-29 13:16:00,
2013-04-29 08:21:00,55.1,52.5,29.76,SE,140,0.0,9.0,91,0.00,,CLR,0.00,VWS V14.01,2013-04-29 13:21:00,
2013-04-29 08:26:00,55.0,52.4,29.77,South,188,4.0,9.0,91,0.01,,CLR,0.01,VWS V14.01,2013-04-29 13:26:00,
2013-04-29 08:31:00,54.5,52.5,29.75,ESE,115,4.0,9.0,93,0.13,,CLR,0.13,VWS V14.01,2013-04-29 13:31:00,
2013-04-29 08:36:00,53.9,52.2,29.74,SSE,159,2.0,9.0,94,0.23,,CLR,0.23,VWS V14.01,2013-04-29 13:36:00,
2013-04-29 08:41:00,53.7,52.3,29.72,SE,132,6.0,9.0,95,0.24,,CLR,0.24,VWS V14.01,2013-04-29 13:41:00,
2013-04-29 08:46:00,53.6,52.2,29.72,South,179,3.0,11.0,95,0.24,,CLR,0.24,VWS V14.01,2013-04-29 13:46:00,
2013-04-29 08:51:00,53.7,52.3,29.75,SW,232,8.0,11.0,95,0.24,,CLR,0.24,VWS V14.01,2013-04-29 13:51:00,
2013-04-29 08:56:00,53.8,52.4,29.75,SW,226,6.0,11.0,95,0.24,,CLR,0.24,VWS V14.01,2013-04-29 13:56:00,
2013-04-29 09:01:00,53.8,52.4,29.74,SSW,213,0.0,1.0,95,0.24,,CLR,0.24,VWS V14.01,2013-04-29 14:01:00,
2013-04-29 09:06:00,53.9,52.5,29.72,SE,131,5.0,7.0,95,0.25,,CLR,0.25,VWS V14.01,2013-04-29 14:06:00,
2013-04-29 09:11:00,53.8,52.7,29.71,SE,128,6.0,10.0,96,0.25,,CLR,0.25,VWS V14.01,2013-04-29 14:11:00,
2013-04-29 09:16:00,53.6,52.5,29.74,SSW,202,4.0,10.0,96,0.25,,CLR,0.25,VWS V14.01,2013-04-29 14:16:00,
2013-04-29 09:21:00,53.7,52.6,29.76,NNW,331,3.0,10.0,96,0.25,,CLR,0.25,VWS V14.01,2013-04-29 14:21:00,
2013-04-29 09:26:00,53.8,52.7,29.72,SE,136,6.0,10.0,96,0.25,,CLR,0.25,VWS V14.01,2013-04-29 14:26:00,
2013-04-29 09:31:00,53.8,52.7,29.74,SSE,150,2.0,10.0,96,0.25,,CLR,0.25,VWS V14.01,2013-04-29 14:31:00,
2013-04-29 09:36:00,53.7,52.6,29.76,NW,321,6.0,10.0,96,0.25,,CLR,0.25,VWS V14.01,2013-04-29 14:36:00,
2013-04-29 09:41:00,54.0,52.9,29.73,SE,127,5.0,10.0,96,0.25,,CLR,0.25,VWS V14.01,2013-04-29 14:41:00,
2013-04-29 09:46:00,54.3,53.2,29.73,SSE,153,2.0,10.0,96,0.25,,CLR,0.25,VWS V14.01,2013-04-29 14:46:00,
2013-04-29 09:51:00,55.3,54.5,29.73,SE,137,2.0,10.0,97,0.25,,CLR,0.25,VWS V14.01,2013-04-29 14:51:00,
2013-04-29 09:57:00,55.7,54.3,29.73,South,173,1.0,10.0,95,0.25,,CLR,0.25,VWS V14.01,2013-04-29 14:57:00,
2013-04-29 10:02:00,55.9,54.5,29.73,SSE,159,3.0,5.0,95,0.01,,CLR,0.25,VWS V14.01,2013-04-29 15:02:00,
2013-04-29 10:07:00,57.3,55.9,29.72,SE,136,6.0,6.0,95,0.01,,CLR,0.25,VWS V14.01,2013-04-29 15:07:00,
2013-04-29 10:12:00,57.9,55.9,29.73,South,174,4.0,9.0,93,0.01,,CLR,0.25,VWS V14.01,2013-04-29 15:12:00,
2013-04-29 10:17:00,58.8,56.5,29.73,SSE,159,5.0,9.0,92,0.01,,CLR,0.25,VWS V14.01,2013-04-29 15:17:00,
2013-04-29 10:22:00,58.8,55.6,29.73,SE,135,6.0,10.0,89,0.01,,CLR,0.25,VWS V14.01,2013-04-29 15:22:00,
2013-04-29 10:27:00,59.1,56.2,29.73,SE,139,2.0,10.0,90,0.01,,CLR,0.25,VWS V14.01,2013-04-29 15:27:00,
2013-04-29 10:32:00,59.6,56.4,29.72,ESE,121,5.0,10.0,89,0.01,,CLR,0.25,VWS V14.01,2013-04-29 15:32:00,
2013-04-29 10:37:00,60.0,56.4,29.72,ESE,117,5.0,10.0,88,0.01,,CLR,0.25,VWS V14.01,2013-04-29 15:37:00,
2013-04-29 10:42:00,60.4,56.2,29.72,SE,134,5.0,10.0,86,0.01,,CLR,0.25,VWS V14.01,2013-04-29 15:42:00,
2013-04-29 10:47:00,60.8,56.6,29.72,South,175,7.0,11.0,86,0.01,,CLR,0.25,VWS V14.01,2013-04-29 15:47:00,
2013-04-29 10:52:00,61.2,57.0,29.73,East,94,5.0,11.0,86,0.01,,CLR,0.25,VWS V14.01,2013-04-29 15:52:00,
2013-04-29 10:57:00,61.3,56.4,29.73,South,177,2.0,11.0,84,0.01,,CLR,0.25,VWS V14.01,2013-04-29 15:57:00,
2013-04-29 11:02:00,61.4,56.5,29.73,SSE,168,2.0,4.0,84,0.00,,CLR,0.25,VWS V14.01,2013-04-29 16:02:00,
2013-04-29 11:07:00,61.4,55.9,29.73,East,98,8.0,8.0,82,0.00,,CLR,0.25,VWS V14.01,2013-04-29 16:07:00,
2013-04-29 11:12:00,62.0,56.8,29.74,SSE,153,2.0,8.0,83,0.00,,CLR,0.25,VWS V14.01,2013-04-29 16:12:00,
2013-04-29 11:17:00,62.3,57.1,29.74,SE,126,6.0,8.0,83,0.00,,CLR,0.25,VWS V14.01,2013-04-29 16:17:00,
2013-04-29 11:22:00,62.5,56.9,29.73,SSE,161,3.0,8.0,82,0.00,,CLR,0.25,VWS V14.01,2013-04-29 16:22:00,
2013-04-29 11:27:00,62.8,57.2,29.72,SSE,153,1.0,8.0,82,0.00,,CLR,0.25,VWS V14.01,2013-04-29 16:27:00,
2013-04-29 11:32:00,63.6,58.0,29.72,East,94,3.0,8.0,82,0.00,,CLR,0.25,VWS V14.01,2013-04-29 16:32:00,
2013-04-29 11:37:00,64.8,58.5,29.72,SSE,155,3.0,8.0,80,0.00,,CLR,0.25,VWS V14.01,2013-04-29 16:37:00,
2013-04-29 11:42:00,64.4,58.1,29.72,South,183,3.0,8.0,80,0.00,,CLR,0.25,VWS V14.01,2013-04-29 16:42:00,
2013-04-29 11:47:00,65.3,58.6,29.72,SSE,156,5.0,8.0,79,0.00,,CLR,0.25,VWS V14.01,2013-04-29 16:47:00,
2013-04-29 11:53:00,64.7,58.0,29.71,SE,129,3.0,8.0,79,0.00,,CLR,0.25,VWS V14.01,2013-04-29 16:53:00,
2013-04-29 11:58:00,64.8,58.1,29.72,SSE,152,4.0,8.0,79,0.00,,CLR,0.25,VWS V14.01,2013-04-29 16:58:00,
2013-04-29 12:03:00,65.3,58.3,29.72,SE,128,2.0,8.0,78,0.00,,CLR,0.25,VWS V14.01,2013-04-29 17:03:00,
2013-04-29 12:08:00,65.5,58.1,29.71,ESE,113,5.0,9.0,77,0.00,,CLR,0.25,VWS V14.01,2013-04-29 17:08:00,
2013-04-29 12:13:00,66.1,59.0,29.71,SE,131,5.0,9.0,78,0.00,,CLR,0.25,VWS V14.01,2013-04-29 17:13:00,
2013-04-29 12:18:00,65.9,58.5,29.71,East,94,6.0,9.0,77,0.00,,CLR,0.25,VWS V14.01,2013-04-29 17:18:00,
2013-04-29 12:23:00,67.2,58.6,29.70,SSE,152,1.0,9.0,74,0.00,,CLR,0.25,VWS V14.01,2013-04-29 17:23:00,
2013-04-29 12:28:00,66.5,58.3,29.70,SSE,149,4.0,9.0,75,0.00,,CLR,0.25,VWS V14.01,2013-04-29 17:28:00,
2013-04-29 12:33:00,66.7,58.5,29.70,SSE,166,6.0,10.0,75,0.00,,CLR,0.25,VWS V14.01,2013-04-29 17:33:00,
2013-04-29 12:38:00,66.9,58.7,29.69,SE,143,4.0,10.0,75,0.00,,CLR,0.25,VWS V14.01,2013-04-29 17:38:00,
2013-04-29 12:43:00,67.6,57.9,29.69,South,180,3.0,10.0,71,0.00,,CLR,0.25,VWS V14.01,2013-04-29 17:43:00,
2013-04-29 12:48:00,67.7,58.0,29.69,ESE,117,8.0,11.0,71,0.00,,CLR,0.25,VWS V14.01,2013-04-29 17:48:00,
2013-04-29 12:53:00,67.6,57.9,29.69,SSW,193,2.0,11.0,71,0.00,,CLR,0.25,VWS V14.01,2013-04-29 17:53:00,
2013-04-29 12:58:00,67.5,58.9,29.68,SE,125,7.0,13.0,74,0.00,,CLR,0.25,VWS V14.01,2013-04-29 17:58:00,
2013-04-29 13:03:00,67.2,57.9,29.67,SSE,157,3.0,10.0,72,0.00,,CLR,0.25,VWS V14.01,2013-04-29 18:03:00,
2013-04-29 13:08:00,67.8,58.8,29.68,ESE,111,3.0,10.0,73,0.00,,CLR,0.25,VWS V14.01,2013-04-29 18:08:00,
2013-04-29 13:13:00,67.7,58.4,29.68,SE,144,8.0,10.0,72,0.00,,CLR,0.25,VWS V14.01,2013-04-29 18:13:00,
2013-04-29 13:18:00,67.6,58.3,29.67,SE,126,6.0,10.0,72,0.00,,CLR,0.25,VWS V14.01,2013-04-29 18:18:00,
2013-04-29 13:23:00,68.0,57.1,29.67,SSW,194,9.0,10.0,68,0.00,,CLR,0.25,VWS V14.01,2013-04-29 18:23:00,
2013-04-29 13:28:00,68.4,57.8,29.67,South,178,5.0,10.0,69,0.00,,CLR,0.25,VWS V14.01,2013-04-29 18:28:00,
2013-04-29 13:33:00,68.2,57.7,29.67,ENE,64,2.0,10.0,69,0.00,,CLR,0.25,VWS V14.01,2013-04-29 18:33:00,
2013-04-29 13:38:00,68.3,58.2,29.66,SSE,166,9.0,10.0,70,0.00,,CLR,0.25,VWS V14.01,2013-04-29 18:38:00,
2013-04-29 13:43:00,68.5,57.5,29.66,SE,146,4.0,12.0,68,0.00,,CLR,0.25,VWS V14.01,2013-04-29 18:43:00,
2013-04-29 13:49:00,68.2,57.7,29.66,SE,142,6.0,12.0,69,0.00,,CLR,0.25,VWS V14.01,2013-04-29 18:49:00,
2013-04-29 13:54:00,67.7,57.2,29.67,ESE,119,8.0,12.0,69,0.00,,CLR,0.25,VWS V14.01,2013-04-29 18:54:00,
2013-04-29 13:59:00,67.5,57.4,29.66,SE,138,6.0,12.0,70,0.00,,CLR,0.25,VWS V14.01,2013-04-29 18:59:00,
2013-04-29 14:04:00,69.2,59.4,29.66,SSE,149,2.0,5.0,71,0.00,,CLR,0.25,VWS V14.01,2013-04-29 19:04:00,
2013-04-29 14:09:00,68.8,58.2,29.66,SSE,155,6.0,10.0,69,0.00,,CLR,0.25,VWS V14.01,2013-04-29 19:09:00,
2013-04-29 14:14:00,69.5,58.5,29.66,ESE,103,4.0,11.0,68,0.00,,CLR,0.25,VWS V14.01,2013-04-29 19:14:00,
2013-04-29 14:19:00,69.4,57.6,29.66,SSE,163,4.0,11.0,66,0.00,,CLR,0.25,VWS V14.01,2013-04-29 19:19:00,
2013-04-29 14:24:00,69.6,58.6,29.65,South,178,7.0,11.0,68,0.00,,CLR,0.25,VWS V14.01,2013-04-29 19:24:00,
2013-04-29 14:29:00,70.0,58.1,29.65,East,98,8.0,11.0,66,0.00,,CLR,0.25,VWS V14.01,2013-04-29 19:29:00,
2013-04-29 14:34:00,70.0,57.7,29.65,ESE,115,3.0,11.0,65,0.00,,CLR,0.25,VWS V14.01,2013-04-29 19:34:00,
2013-04-29 14:39:00,69.8,58.4,29.65,SE,146,1.0,11.0,67,0.00,,CLR,0.25,VWS V14.01,2013-04-29 19:39:00,
2013-04-29 14:44:00,70.4,58.5,29.65,ESE,116,2.0,11.0,66,0.00,,CLR,0.25,VWS V14.01,2013-04-29 19:44:00,
2013-04-29 14:49:00,70.4,58.1,29.65,SSE,147,4.0,11.0,65,0.00,,CLR,0.25,VWS V14.01,2013-04-29 19:49:00,
2013-04-29 14:54:00,71.0,59.5,29.64,SSE,155,5.0,11.0,67,0.00,,CLR,0.25,VWS V14.01,2013-04-29 19:54:00,
2013-04-29 14:59:00,71.1,58.8,29.65,ESE,106,5.0,11.0,65,0.00,,CLR,0.25,VWS V14.01,2013-04-29 19:59:00,
2013-04-29 15:04:00,71.3,59.4,29.64,ESE,110,4.0,6.0,66,0.00,,CLR,0.25,VWS V14.01,2013-04-29 20:04:00,
2013-04-29 15:09:00,71.3,58.9,29.64,South,171,7.0,8.0,65,0.00,,CLR,0.25,VWS V14.01,2013-04-29 20:09:00,
2013-04-29 15:14:00,72.3,59.9,29.64,SSW,204,5.0,8.0,65,0.00,,CLR,0.25,VWS V14.01,2013-04-29 20:14:00,
2013-04-29 15:19:00,72.9,59.6,29.64,SW,215,8.0,11.0,63,0.00,,CLR,0.25,VWS V14.01,2013-04-29 20:19:00,
2013-04-29 15:24:00,73.0,58.8,29.64,SSE,162,6.0,11.0,61,0.00,,CLR,0.25,VWS V14.01,2013-04-29 20:24:00,
2013-04-29 15:29:00,73.5,59.7,29.63,SE,141,4.0,11.0,62,0.00,,CLR,0.25,VWS V14.01,2013-04-29 20:29:00,
2013-04-29 15:34:00,73.9,59.2,29.63,SSE,165,3.0,11.0,60,0.00,,CLR,0.25,VWS V14.01,2013-04-29 20:34:00,
2013-04-29 15:40:00,74.3,59.1,29.63,SSW,194,5.0,11.0,59,0.00,,CLR,0.25,VWS V14.01,2013-04-29 20:40:00,
2013-04-29 15:45:00,74.0,60.2,29.63,SSE,157,4.0,11.0,62,0.00,,CLR,0.25,VWS V14.01,2013-04-29 20:45:00,
2013-04-29 15:50:00,74.3,60.0,29.62,South,188,4.0,11.0,61,0.00,,CLR,0.25,VWS V14.01,2013-04-29 20:50:00,
2013-04-29 15:55:00,74.3,61.8,29.62,SSW,201,2.0,11.0,65,0.00,,CLR,0.25,VWS V14.01,2013-04-29 20:55:00,
2013-04-29 16:00:00,74.4,59.6,29.62,South,191,4.0,11.0,60,0.00,,CLR,0.25,VWS V14.01,2013-04-29 21:00:00,
2013-04-29 16:05:00,74.7,60.4,29.62,SSW,198,4.0,11.0,61,0.00,,CLR,0.25,VWS V14.01,2013-04-29 21:05:00,
2013-04-29 16:10:00,75.0,59.7,29.61,South,177,9.0,11.0,59,0.00,,CLR,0.25,VWS V14.01,2013-04-29 21:10:00,
2013-04-29 16:15:00,75.4,59.6,29.61,SSW,194,7.0,11.0,58,0.00,,CLR,0.25,VWS V14.01,2013-04-29 21:15:00,
2013-04-29 16:20:00,75.6,61.2,29.60,SSW,197,4.0,11.0,61,0.00,,CLR,0.25,VWS V14.01,2013-04-29 21:20:00,
2013-04-29 16:25:00,75.4,60.1,29.60,SE,139,4.0,11.0,59,0.00,,CLR,0.25,VWS V14.01,2013-04-29 21:25:00,
2013-04-29 16:30:00,75.5,60.7,29.60,South,180,3.0,11.0,60,0.00,,CLR,0.25,VWS V14.01,2013-04-29 21:30:00,
2013-04-29 16:35:00,75.8,60.5,29.60,SSW,197,3.0,11.0,59,0.00,,CLR,0.25,VWS V14.01,2013-04-29 21:35:00,
2013-04-29 16:40:00,75.6,60.8,29.60,SE,132,1.0,11.0,60,0.00,,CLR,0.25,VWS V14.01,2013-04-29 21:40:00,
2013-04-29 16:45:00,75.9,61.0,29.59,SE,145,0.0,11.0,60,0.00,,CLR,0.25,VWS V14.01,2013-04-29 21:45:00,
2013-04-29 16:50:00,76.2,60.4,29.59,SW,219,5.0,11.0,58,0.00,,CLR,0.25,VWS V14.01,2013-04-29 21:50:00,
2013-04-29 16:55:00,75.9,60.6,29.59,South,191,4.0,11.0,59,0.00,,CLR,0.25,VWS V14.01,2013-04-29 21:55:00,
2013-04-29 17:00:00,76.1,60.3,29.59,SE,142,4.0,4.0,58,0.00,,CLR,0.25,VWS V14.01,2013-04-29 22:00:00,
2013-04-29 17:05:00,76.4,59.6,29.59,SSE,165,3.0,5.0,56,0.00,,CLR,0.25,VWS V14.01,2013-04-29 22:05:00,
2013-04-29 17:10:00,76.7,60.8,29.59,SSW,200,1.0,5.0,58,0.00,,CLR,0.25,VWS V14.01,2013-04-29 22:10:00,
2013-04-29 17:15:00,76.4,59.1,29.59,SSE,155,0.0,5.0,55,0.00,,CLR,0.25,VWS V14.01,2013-04-29 22:15:00,
2013-04-29 17:20:00,76.2,60.4,29.59,SE,142,2.0,5.0,58,0.00,,CLR,0.25,VWS V14.01,2013-04-29 22:20:00,
2013-04-29 17:25:00,76.4,60.5,29.59,South,178,2.0,6.0,58,0.00,,CLR,0.25,VWS V14.01,2013-04-29 22:25:00,
2013-04-29 17:30:00,77.4,60.5,29.58,SE,139,3.0,6.0,56,0.00,,CLR,0.25,VWS V14.01,2013-04-29 22:30:00,
2013-04-29 17:35:00,77.8,59.8,29.59,SSE,168,3.0,7.0,54,0.00,,CLR,0.25,VWS V14.01,2013-04-29 22:35:00,
2013-04-29 17:40:00,78.2,60.7,29.58,SW,219,2.0,9.0,55,0.00,,CLR,0.25,VWS V14.01,2013-04-29 22:40:00,
2013-04-29 17:46:00,78.1,59.1,29.59,SSW,198,2.0,9.0,52,0.00,,CLR,0.25,VWS V14.01,2013-04-29 22:46:00,
2013-04-29 17:51:00,77.8,59.8,29.59,SSE,153,3.0,9.0,54,0.00,,CLR,0.25,VWS V14.01,2013-04-29 22:51:00,
2013-04-29 17:56:00,77.6,59.7,29.59,SSW,199,5.0,9.0,54,0.00,,CLR,0.25,VWS V14.01,2013-04-29 22:56:00,
2013-04-29 18:01:00,77.5,59.0,29.59,SE,143,1.0,6.0,53,0.00,,CLR,0.25,VWS V14.01,2013-04-29 23:01:00,
2013-04-29 18:06:00,77.5,60.1,29.59,SW,230,3.0,7.0,55,0.00,,CLR,0.25,VWS V14.01,2013-04-29 23:06:00,
2013-04-29 18:11:00,77.6,59.1,29.59,WSW,257,6.0,7.0,53,0.00,,CLR,0.25,VWS V14.01,2013-04-29 23:11:00,
2013-04-29 18:16:00,77.3,59.9,29.59,SW,216,3.0,9.0,55,0.00,,CLR,0.25,VWS V14.01,2013-04-29 23:16:00,
2013-04-29 18:21:00,77.3,58.8,29.58,SSW,209,1.0,9.0,53,0.00,,CLR,0.25,VWS V14.01,2013-04-29 23:21:00,
2013-04-29 18:26:00,77.3,59.4,29.58,SSW,209,2.0,9.0,54,0.00,,CLR,0.25,VWS V14.01,2013-04-29 23:26:00,
2013-04-29 18:31:00,77.2,58.8,29.58,South,186,2.0,9.0,53,0.00,,CLR,0.25,VWS V14.01,2013-04-29 23:31:00,
2013-04-29 18:36:00,77.2,59.3,29.58,South,173,4.0,9.0,54,0.00,,CLR,0.25,VWS V14.01,2013-04-29 23:36:00,
2013-04-29 18:41:00,77.1,59.2,29.58,SSW,211,3.0,9.0,54,0.00,,CLR,0.25,VWS V14.01,2013-04-29 23:41:00,
2013-04-29 18:46:00,77.2,59.3,29.57,SSW,211,1.0,9.0,54,0.00,,CLR,0.25,VWS V14.01,2013-04-29 23:46:00,
2013-04-29 18:51:00,76.9,60.0,29.57,SSW,211,0.0,9.0,56,0.00,,CLR,0.25,VWS V14.01,2013-04-29 23:51:00,
2013-04-29 18:56:00,76.7,60.3,29.57,SSW,211,0.0,9.0,57,0.00,,CLR,0.25,VWS V14.01,2013-04-29 23:56:00,
2013-04-29 19:01:00,76.8,60.4,29.57,SSW,211,0.0,1.0,57,0.00,,CLR,0.25,VWS V14.01,2013-04-30 00:01:00,
2013-04-29 19:06:00,76.5,60.2,29.57,SSW,211,0.0,1.0,57,0.00,,CLR,0.25,VWS V14.01,2013-04-30 00:06:00,
2013-04-29 19:11:00,76.0,60.2,29.57,SSW,211,0.0,1.0,58,0.00,,CLR,0.25,VWS V14.01,2013-04-30 00:11:00,
2013-04-29 19:16:00,75.6,60.3,29.57,SSW,211,0.0,1.0,59,0.00,,CLR,0.25,VWS V14.01,2013-04-30 00:16:00,
2013-04-29 19:21:00,75.3,60.5,29.57,SSW,211,0.0,1.0,60,0.00,,CLR,0.25,VWS V14.01,2013-04-30 00:21:00,
2013-04-29 19:26:00,75.2,60.8,29.57,SSW,211,0.0,2.0,61,0.00,,CLR,0.25,VWS V14.01,2013-04-30 00:26:00,
2013-04-29 19:31:00,75.1,62.1,29.57,SSW,211,0.0,2.0,64,0.00,,CLR,0.25,VWS V14.01,2013-04-30 00:31:00,
2013-04-29 19:36:00,74.6,60.7,29.57,SSW,211,0.0,2.0,62,0.00,,CLR,0.25,VWS V14.01,2013-04-30 00:36:00,
2013-04-29 19:41:00,74.7,60.4,29.57,SSW,211,0.0,2.0,61,0.00,,CLR,0.25,VWS V14.01,2013-04-30 00:41:00,
2013-04-29 19:46:00,74.0,61.5,29.57,SSW,211,0.0,2.0,65,0.00,,CLR,0.25,VWS V14.01,2013-04-30 00:46:00,
2013-04-29 19:51:00,73.5,61.0,29.57,SSW,211,0.0,2.0,65,0.00,,CLR,0.25,VWS V14.01,2013-04-30 00:51:00,
2013-04-29 19:56:00,73.2,60.7,29.57,SSW,211,0.0,2.0,65,0.00,,CLR,0.25,VWS V14.01,2013-04-30 00:56:00,
2013-04-29 20:01:00,72.6,61.0,29.57,SSW,211,0.0,1.0,67,0.00,,CLR,0.25,VWS V14.01,2013-04-30 01:01:00,
2013-04-29 20:06:00,72.0,60.9,29.57,SSW,211,0.0,3.0,68,0.00,,CLR,0.25,VWS V14.01,2013-04-30 01:06:00,
2013-04-29 20:11:00,71.3,61.0,29.57,SSW,211,0.0,3.0,70,0.00,,CLR,0.25,VWS V14.01,2013-04-30 01:11:00,
2013-04-29 20:17:00,70.6,60.8,29.57,SSW,211,0.0,3.0,71,0.00,,CLR,0.25,VWS V14.01,2013-04-30 01:17:00,
2013-04-29 20:22:00,70.2,61.2,29.57,SSW,211,1.0,3.0,73,0.00,,CLR,0.25,VWS V14.01,2013-04-30 01:22:00,
2013-04-29 20:27:00,69.9,60.9,29.57,SSW,211,0.0,3.0,73,0.00,,CLR,0.25,VWS V14.01,2013-04-30 01:27:00,
2013-04-29 20:32:00,69.9,60.5,29.58,SSW,211,0.0,3.0,72,0.00,,CLR,0.25,VWS V14.01,2013-04-30 01:32:00,
2013-04-29 20:37:00,69.8,60.8,29.57,SSW,211,0.0,3.0,73,0.00,,CLR,0.25,VWS V14.01,2013-04-30 01:37:00,
2013-04-29 20:42:00,69.3,60.3,29.58,SSW,211,0.0,3.0,73,0.00,,CLR,0.25,VWS V14.01,2013-04-30 01:42:00,
2013-04-29 20:47:00,68.7,59.7,29.58,SSW,211,0.0,3.0,73,0.00,,CLR,0.25,VWS V14.01,2013-04-30 01:47:00,
2013-04-29 20:52:00,68.1,59.9,29.57,SSW,211,0.0,3.0,75,0.00,,CLR,0.25,VWS V14.01,2013-04-30 01:52:00,
2013-04-29 20:57:00,67.5,60.0,29.57,SSW,211,0.0,3.0,77,0.00,,CLR,0.25,VWS V14.01,2013-04-30 01:57:00,
2013-04-29 21:02:00,67.1,60.0,29.57,SSW,211,0.0,0.0,78,0.00,,CLR,0.25,VWS V14.01,2013-04-30 02:02:00,
2013-04-29 21:07:00,67.1,59.7,29.57,SSW,211,0.0,1.0,77,0.00,,CLR,0.25,VWS V14.01,2013-04-30 02:07:00,
2013-04-29 21:12:00,67.0,59.6,29.57,SSW,211,0.0,1.0,77,0.00,,CLR,0.25,VWS V14.01,2013-04-30 02:12:00,
2013-04-29 21:17:00,66.7,59.6,29.57,SSW,211,0.0,1.0,78,0.00,,CLR,0.25,VWS V14.01,2013-04-30 02:17:00,
2013-04-29 21:22:00,66.4,59.3,29.57,SSW,211,0.0,1.0,78,0.00,,CLR,0.25,VWS V14.01,2013-04-30 02:22:00,
2013-04-29 21:27:00,66.1,59.0,29.57,SSW,211,0.0,1.0,78,0.00,,CLR,0.25,VWS V14.01,2013-04-30 02:27:00,
2013-04-29 21:32:00,66.0,59.0,29.57,SSW,211,0.0,1.0,78,0.00,,CLR,0.25,VWS V14.01,2013-04-30 02:32:00,
2013-04-29 21:37:00,65.9,58.9,29.57,SSW,211,0.0,1.0,78,0.00,,CLR,0.25,VWS V14.01,2013-04-30 02:37:00,
2013-04-29 21:42:00,66.0,58.6,29.58,SSW,211,0.0,1.0,77,0.00,,CLR,0.25,VWS V14.01,2013-04-30 02:42:00,
2013-04-29 21:47:00,65.6,58.6,29.58,SSW,211,0.0,1.0,78,0.00,,CLR,0.25,VWS V14.01,2013-04-30 02:47:00,
2013-04-29 21:52:00,65.2,58.5,29.57,SSW,211,0.0,2.0,79,0.00,,CLR,0.25,VWS V14.01,2013-04-30 02:52:00,
2013-04-29 21:57:00,65.0,58.3,29.57,SSW,211,0.0,2.0,79,0.00,,CLR,0.25,VWS V14.01,2013-04-30 02:57:00,
2013-04-29 22:02:00,64.6,58.3,29.57,SSW,211,0.0,0.0,80,0.00,,CLR,0.25,VWS V14.01,2013-04-30 03:02:00,
2013-04-29 22:07:00,64.6,58.3,29.57,SSW,211,0.0,1.0,80,0.00,,CLR,0.25,VWS V14.01,2013-04-30 03:07:00,
2013-04-29 22:12:00,64.6,58.3,29.57,SSW,211,0.0,2.0,80,0.00,,CLR,0.25,VWS V14.01,2013-04-30 03:12:00,
2013-04-29 22:18:00,64.9,58.6,29.57,SSW,211,0.0,2.0,80,0.00,,CLR,0.25,VWS V14.01,2013-04-30 03:18:00,
2013-04-29 22:23:00,65.0,58.3,29.57,SSW,211,1.0,2.0,79,0.00,,CLR,0.25,VWS V14.01,2013-04-30 03:23:00,
2013-04-29 22:28:00,65.2,58.5,29.57,SSW,211,0.0,2.0,79,0.00,,CLR,0.25,VWS V14.01,2013-04-30 03:28:00,
2013-04-29 22:33:00,65.3,58.6,29.57,SSW,211,0.0,2.0,79,0.00,,CLR,0.25,VWS V14.01,2013-04-30 03:33:00,
2013-04-29 22:38:00,65.7,58.7,29.57,SSW,211,0.0,2.0,78,0.00,,CLR,0.25,VWS V14.01,2013-04-30 03:38:00,
2013-04-29 22:43:00,65.8,58.8,29.57,SSW,211,0.0,2.0,78,0.00,,CLR,0.25,VWS V14.01,2013-04-30 03:43:00,
2013-04-29 22:48:00,65.3,58.3,29.57,SSW,211,0.0,2.0,78,0.00,,CLR,0.25,VWS V14.01,2013-04-30 03:48:00,
2013-04-29 22:53:00,64.9,58.6,29.57,SSW,211,0.0,2.0,80,0.00,,CLR,0.25,VWS V14.01,2013-04-30 03:53:00,
2013-04-29 22:58:00,64.7,58.4,29.56,SSW,211,0.0,2.0,80,0.00,,CLR,0.25,VWS V14.01,2013-04-30 03:58:00,
2013-04-29 23:01:00,64.3,58.3,29.56,SSW,211,0.0,0.0,81,0.00,,CLR,0.25,VWS V14.01,2013-04-30 04:01:00,
2013-04-29 23:06:00,64.4,58.5,29.56,SSW,211,0.0,2.0,81,0.00,,CLR,0.25,VWS V14.01,2013-04-30 04:06:00,
2013-04-29 23:11:00,65.1,58.8,29.56,SSW,211,1.0,2.0,80,0.00,,CLR,0.25,VWS V14.01,2013-04-30 04:11:00,
2013-04-29 23:16:00,65.6,58.9,29.55,SSW,209,1.0,3.0,79,0.00,,CLR,0.25,VWS V14.01,2013-04-30 04:16:00,
2013-04-29 23:21:00,65.6,59.3,29.55,SSE,163,1.0,6.0,80,0.00,,CLR,0.25,VWS V14.01,2013-04-30 04:21:00,
2013-04-29 23:27:00,65.5,59.2,29.55,SSE,161,0.0,6.0,80,0.00,,CLR,0.25,VWS V14.01,2013-04-30 04:27:00,
2013-04-29 23:32:00,64.7,58.7,29.55,ESE,102,0.0,6.0,81,0.00,,CLR,0.25,VWS V14.01,2013-04-30 04:32:00,
2013-04-29 23:37:00,65.2,59.2,29.54,SE,144,1.0,6.0,81,0.00,,CLR,0.25,VWS V14.01,2013-04-30 04:37:00,
2013-04-29 23:42:00,66.1,59.4,29.54,East,101,0.0,6.0,79,0.00,,CLR,0.25,VWS V14.01,2013-04-30 04:42:00,
2013-04-29 23:47:00,66.2,59.5,29.54,SE,140,1.0,6.0,79,0.00,,CLR,0.25,VWS V14.01,2013-04-30 04:47:00,
2013-04-29 23:52:00,66.2,59.5,29.54,SSE,151,1.0,6.0,79,0.00,,CLR,0.25,VWS V14.01,2013-04-30 04:52:00,
2013-04-29 23:57:00,66.4,60.0,29.55,SSE,153,2.0,7.0,80,0.00,,CLR,0.25,VWS V14.01,2013-04-30 04:57:00,